Location: Honolulu
(21.2943°N, 157.8344°W)
Time: 17:48:30
(UTC-10:00)

ISS - Visible Passes

Search period start: 18 October 2017 00:00
Search period end: 28 October 2017 00:00
Orbit: 401 x 408 km, 51.6° (Epoch: 19 October)

Date Brightness Start Highest point End Pass type
(mag) Time Alt. Az. Time Alt. Az. Time Alt. Az.
18 Oct -1.3 19:28:29 10° WNW 19:31:03 21° SW 19:33:35 10° S visible
19 Oct -3.0 18:35:39 10° NW 18:38:51 55° SW 18:42:03 10° SSE visible
21 Oct -0.7 18:28:28 10° W 18:30:31 16° SW 18:32:33 10° SSW visible
24 Oct -0.6 06:03:35 10° SSE 06:05:24 14° SE 06:07:12 10° E visible
26 Oct -2.8 05:53:48 10° SSW 05:56:56 49° SE 06:00:05 10° NE visible
27 Oct -1.1 05:02:16 10° S 05:04:39 19° SE 05:07:03 10° ENE visible
